Regional Weather Roundup
Issued by NWS

Home | Current Version | Previous Version | Text Only | Print | Product List | Glossary Off
Versions: 1 2 3 4 5 6 7 8 9 10 11 12 13 14 15 16 17 18 19 20 21 22 23 24 25 26 27 28 29 30 31 32 33 34 35 36 37 38 39 40 41 42 43 44 45 46 47 48 49 50

000
ASUS43 KIND 212009
RWRIN

WEATHER ROUNDUP FOR INDIANA
NATIONAL WEATHER SERVICE INDIANAPOLIS IN
400 PM EDT THU AUG 21 2014

NOTE: "FAIR" INDICATES FEW OR NO CLOUDS BELOW 12,000 FEET WITH NO
SIGNIFICANT WEATHER AND/OR OBSTRUCTIONS TO VISIBILITY.

* - STATION DOES NOT REPORT WEATHER SUCH AS PRECIPITATION OR FOG.

+ - STATION NOT QUALITY CONTROLLED BY THE NATIONAL WEATHER SERVICE.
    USE DATA WITH CAUTION...ESPECIALLY DEWPOINT AND RELATIVE
    HUMIDITY OBSERVATIONS.

INZ001>003-010>013-019-020-212100-
NORTHWEST INDIANA

CITY           SKY/WX    TMP DP  RH WIND       PRES   REMARKS
GARY /AIRPORT/ CLOUDY    82  73  74 VRB6      29.96F
KNOX *+        CLOUDY    79  71  75 S6        29.97F
LA PORTE +     HVY RAIN  75  74  98 SE3       29.99F
MICHIGAN CITY+ CLOUDY    77  73  88 SE3       29.98F
MONTICELLO +   PTSUNNY   83  74  73 SW7       29.96F
RENSSELAER +   PTSUNNY   84  75  74 S8        29.96F
VALPARAISO     CLOUDY    80  72  76 SE3       29.98F

$$

LMZ046-743>745-212100-
SOUTHERN LAKE MICHIGAN

STATION/POSITION TIME  TEMP WIND        PRES
                       AIR  DIR/SP/G
                 (UTC) (F)  (DEG/KT/KT) (MB)
BURNS HARBOR     1900   77  170/  1/  4   N/A
MICHIGAN CITY    2000   77  120/  4/  5   N/A

$$

INZ004-005-014>016-021>024-212100-
NORTH CENTRAL INDIANA

CITY           SKY/WX    TMP DP  RH WIND       PRES   REMARKS
GOSHEN         LGT RAIN  76  72  87 CALM      30.00F
LOGANSPORT +   PTSUNNY   82  70  65 S8        29.98F
PERU/GRISSOM   PTSUNNY   82  79  91 S10       29.99F
ROCHESTER +    CLOUDY    81  73  78 S7        29.99F
SOUTH BEND     CLOUDY    78  70  76 S3        30.01S
WARSAW +       CLOUDY    75  72  88 CALM      30.01S

$$

INZ006>009-017-018-025>027-212100-
NORTHEAST INDIANA

CITY           SKY/WX    TMP DP  RH WIND       PRES   REMARKS
ANGOLA *+      PTSUNNY   79  72  78 SW10      30.00F
AUBURN +       CLOUDY    75  68  78 SW5       30.02F
FORT WAYNE     CLOUDY    77  71  82 SW10      30.01F
HUNTINGTON +   CLOUDY    77  71  82 SW8       30.00F

$$

INZ028-029-035-036-043>045-051>053-212100-
WEST CENTRAL INDIANA

CITY           SKY/WX    TMP DP  RH WIND       PRES   REMARKS
GREENCASTLE +  MOSUNNY   84  75  74 SW3       30.01F
LAFAYETTE      PTSUNNY   83  74  74 S10       29.96F
TERRE HAUTE      N/A     87  76  69 S8        29.99F HX  97

$$

INZ030>032-037>040-046>048-054>057-064-065-212100-
CENTRAL INDIANA

CITY           SKY/WX    TMP DP  RH WIND       PRES   REMARKS
CP ATTERBURY + PTSUNNY   86  72  62 S6        30.01F
COLUMBUS       PTSUNNY   84  73  70 SW6       30.02
FRANKFORT +    MOSUNNY   84  75  72 S6        30.00F
GREENWOOD *+   PTSUNNY   86  77  74 S7        30.02  HX  97
INDIANAPOLIS   PTSUNNY   85  72  65 S10       30.00F
-EAGLE CREEK   PTSUNNY   85  72  65 S9        29.99F
KOKOMO *+      PTSUNNY   81  73  78 S12       29.99F
MARION +       CLOUDY    77  71  79 S10       30.02S
MT COMFORT *+  PTSUNNY   82  73  74 S9        30.01F
SHELBYVILLE    PTSUNNY   85  74  69 SW8       30.01F
ZIONSVILLE +   PTSUNNY   85  72  63 S12       30.00F

$$

INZ033-034-041-042-049-050-058-059-212100-
EAST CENTRAL INDIANA

CITY           SKY/WX    TMP DP  RH WIND       PRES   REMARKS
MUNCIE         PTSUNNY   78  70  76 SW9G17    30.02F

$$

INZ060-061-067>069-081>083-085>088-212100-
SOUTHWEST INDIANA

CITY           SKY/WX    TMP DP  RH WIND       PRES   REMARKS
EVANSVILLE     SUNNY     92  71  50 S9        30.02F HX  98
WASHINGTON +   MOSUNNY   88  77  68 SW8       30.00F HX 100

$$

INZ062-063-066-070>080-084-089>092-212100-
SOUTH CENTRAL AND SOUTHEAST INDIANA

CITY           SKY/WX    TMP DP  RH WIND       PRES   REMARKS
BEDFORD +      MOSUNNY   88  70  55 W6        30.02F
BLOOMINGTON    MOSUNNY   86  74  67 SW8       30.02F

$$



USA.gov is the U.S. government's official web portal to all federal, state and local government web resources and services.